Location: Newark
(39.0333°N, 125.7500°E)
Time: 20:23:44
(UTC+00:00)

ISS - Visible Passes

Search period start: 18 January 2020 00:00
Search period end: 28 January 2020 00:00
Orbit: 415 x 421 km, 51.6° (Epoch: 19 January)

Date Brightness Start Highest point End Pass type
(mag) Time Alt. Az. Time Alt. Az. Time Alt. Az.
18 Jan -0.6 11:12:58 10° SW 11:13:11 12° SW 11:13:11 12° SW visible
19 Jan -2.7 10:25:11 10° SSW 10:27:38 35° S 10:27:38 35° S visible
20 Jan -2.3 09:37:46 10° S 09:40:28 23° SE 09:42:01 17° E visible
20 Jan -0.8 11:13:57 10° WSW 11:14:58 17° W 11:14:58 17° W visible
21 Jan -3.6 10:25:42 10° WSW 10:29:02 62° NW 10:29:15 60° NNW visible
22 Jan -3.8 09:37:40 10° SW 09:41:00 74° SE 09:43:27 17° ENE visible
22 Jan -0.7 11:15:38 10° WNW 11:16:24 14° WNW 11:16:24 14° WNW visible
23 Jan -2.1 10:27:00 10° W 10:29:53 26° NNW 10:30:31 24° N visible
24 Jan -2.7 09:38:33 10° WSW 09:41:43 38° NNW 09:44:34 12° NE visible
25 Jan -1.4 10:28:54 10° NW 10:30:54 15° NNW 10:31:29 14° N visible
26 Jan -1.6 09:40:07 10° WNW 09:42:36 19° NNW 09:45:07 10° NNE visible
27 Jan -1.1 10:31:17 10° NNW 10:32:02 11° N 10:32:16 10° N visible
